STARLINK-4677, 53600

Orbit data source: Space-Track

STARLINK-4677, 53600 is a payload satellite owned by SpaceX/Seattle (US) in LEO that was launched on Sun, 28 Aug 2022 UTC via an FALCON 9 launch vehicle from the Air Force Eastern Test Range (AFETR). Payload-class satellites include a variety of spacecraft equipped with specific instruments for various scientific and technological missions. These include communications satellites like Starlink; space stations such as the ISS; scientific satellites like the Hubble; Earth observation satellites from companies like Planet Labs, Umbra, and HawkEye 360; GPS; miniature CubeSats for education and research; and military/defense satellites.

Loading next visibility...
Identifier
53600, 2022-104N
Orbit
LEO
Country
Flag of USUS
Related business
Manufacturer
SpaceX/Seattle
Mission
Operational Commercial Communications
Bus & Motor
STARLINK, Unknown motor
Mass
300 kg wet, ~290 kg dry
Launch date (UTC)
2022-08-28 (3 years ago)
Launch vehicle
FALCON 9
Launch site
Air Force Eastern Test Range (AFETR)
Object type
Payload
Rocket body
Debris
Shape & HBR
Box + 1 Pan, 10.1 m
Radar Cross Section
13.562 m², Large (>1 m²)

Expand to show TLE details & history
Last TLE update: 19 hours ago

TLE from 19 hours ago
0 STARLINK-4677
1 53600U 22104N   25300.24700882  .00001358  00000-0  10341-3 0  9993
2 53600  53.2163 123.5681 0001156  99.9051 260.2071 15.08835797175462
Epoch: 2025-10-27T05:55Z
TLE epoch observation values (Epoch: 2025-10-27T05:55:41.562Z)
Latitude
-0.00005°
Longitude
-1.20671°
Altitude
540.79 km
Speed
7.593 km/s
True Right ascension
08h 14m 16s
True Declination
0° 00' 00"
Sunlit
Object was in daylight at epoch
Visualization orbit readout
Latitude
Unknown
Longitude
Unknown
Altitude
Unknown
Speed
Unknown
Apparent Right ascension
Unknown
Apparent Declination
Unknown
Sunlit
N/A
Visualization observer readout
Local Sidereal Time
20:23:57
Azimuth
Unknown
Elevation
Unknown
Doppler factor
Unknown
Orbital elements
Apogee altitude
540.801 km
Perigee altitude
539.202 km
Semi-major axis
6,918.138 km
Eccentricity
0.00012
Inclination
53.2163°
RAAN
123.5681°
Arg. of periapsis
99.9051°
True anomaly
260.19405°
Mean anomaly
260.2071°
Eccentric anomaly
260.20057°
Mean motion
3.77189 °/min
Orbital period
95.44 mins
BSTAR
0.00010341
Loading maneuver chart data...
Computing Atmospheric mass density...
Loading historical data...
Loading historical data...
Loading historical data...
Loading historical data...
Loading historical data...
Loading historical data...
Loading historical data...

Documentation

Showing up to 5 results
|